[Iaude] MPEC J221: 2024 JX6 [a=1.36,e=0.16,i=21.6,H=24.6]
    mpec at cfa.harvard.edu 
    mpec at cfa.harvard.edu
       
    Thu May  9 09:59:24 EDT 2024
    
    
  
M.P.E.C. 2024-J221                                  Issued 2024 May 9, 13:57 UT
     The Minor Planet Electronic Circulars contain information on unusual
         minor planets, routine data on comets and natural satellites,
         and occasional editorial announcements.  They are published
    on behalf of Division F of the International Astronomical Union by the
          Minor Planet Center, Smithsonian Astrophysical Observatory,
                          Cambridge, MA 02138, U.S.A.
			  
             Prepared using the Tamkin Foundation Computer Network
                              MPC at CFA.HARVARD.EDU
            URL https://www.minorplanetcenter.net/    ISSN 1523-6714
                                    2024 JX6                                    
Observations:
     K24J06X* C2024 05 07.55915016 48 58.089-05 27 42.48         22.04wXEJ221F52
     K24J06X  C2024 05 07.58141616 48 58.901-05 24 18.43         21.40wXEJ221F52
     K24J06X  C2024 05 07.59254516 48 59.334-05 22 34.79         21.27wXEJ221F52
     K24J06X KC2024 05 07.70488416 49 05.880-05 04 20.24         21.9 GVEJ221474
     K24J06X KC2024 05 07.70868216 49 06.106-05 03 45.47         22.1 GVEJ221474
     K24J06X KC2024 05 07.71247916 49 06.245-05 03 09.94         21.2 GVEJ221474
     K24J06X KC2024 05 08.34719 16 49 44.61 -03 27 22.8          22.7 RVEJ221291
     K24J06X KC2024 05 08.35221 16 49 44.80 -03 26 37.0          22.4 RVEJ221291
     K24J06X KC2024 05 08.35720 16 49 44.95 -03 25 51.7          21.6 RVEJ221291
     K24J06X KC2024 05 09.46092216 50 40.830-00 38 30.10         21.64GVEJ221V06
     K24J06X KC2024 05 09.46482816 50 40.960-00 37 54.90         21.70GVEJ221V06
     K24J06X KC2024 05 09.46873516 50 41.030-00 37 19.70         20.34GVEJ221V06
Observer details:
291 LPL/Spacewatch II.  Observer M. T. Read.  1.8-m f/2.7 reflector + CCD.
474 Mount John Observatory, Lake Tekapo.  Observers A. C. Gilmore, P. M.
    Kilmartin.  Measurer P. M. Kilmartin.  1.0-m f/7.7 Reflector + CCD.
F52 Pan-STARRS 2, Haleakala.  Observers J. Herman, T. Lowe, P. Minguez, A.
    Schultz, I. Smith.  Measurers K. Chambers, T. de Boer, J. Fairlamb, H.
    Gao, M. Huber, C.-C. Lin, E. Magnier, Y. Ramanjooloo, R. Wainscoat, R.
    Weryk.  1.8-m Ritchey-Chretien + CCD.
V06 Catalina Sky Survey-Kuiper.  Observer H. Groeller.  Measurers T. Beuden,
    V. F. Carvajal, D. Fay, J. B. Fazekas, D. C. Fuls, A. R. Gibbs, A. D.
    Grauer, H. Groeller, J. K. Hogan, R. A. Kowalski, S. M. Larson, G. J.
    Leonard, D. Rankin, R. L. Seaman, F. C. Shelly, K. W. Wierzchos.  1.55-m
    reflector + 1K CCD.
Orbital elements:
2024 JX6                                                 Earth MOID = 0.1335 AU
Epoch 2024 Mar. 31.0 TT = JDT 2460400.5                 MPC                     
M 332.01898              (2000.0)            P               Q                  
n   0.62169286     Peri.   12.35976     -0.55539278     +0.79024315             
a   1.3596239      Node   224.62893     -0.79090981     -0.59816179             
e   0.1620248      Incl.   21.62956     -0.25690570     +0.13310987             
P   1.59           H   24.61          G   0.15           U   9                  
Residuals in seconds of arc
240507 F52  0.2+  0.3+    240507 474  0.2-  0.6-    240508 291  0.2+  0.2-
240507 F52  0.2+  0.6-    240507 474  0.6-  0.0     240509 V06  0.7+  0.2+
240507 F52  0.4+  0.5+    240508 291  0.2+  0.3+    240509 V06  0.7+  0.1+
240507 474 (1.1-  0.5-)   240508 291  0.5+  0.1+    240509 V06  0.1-  0.0
Ephemeris:
2024 JX6                 a,e,i = 1.36, 0.16, 22                  q = 1.1393
Date    TT    R. A. (2000) Decl.     Delta      r    Elong.  Phase     V
2024 04 09    15 47 59.5 -53 43 03   0.2531  1.1625   124.1    45.5    23.7
...
2024 04 24    16 28 22.0 -36 15 13   0.1763  1.1474   140.6    33.8    22.5
...
2024 05 02    16 42 23.5 -19 25 45   0.1526  1.1424   149.9    26.2    22.0
...
2024 05 08    16 49 24.5 -04 19 56   0.1479  1.1402   150.4    25.9    21.9
2024 05 09    16 50 18.8 -01 47 43   0.1483  1.1400   149.7    26.6    21.9
2024 05 10    16 51 09.0 +00 42 46   0.1490  1.1398   148.7    27.4    22.0
...
2024 05 16    16 54 54.0 +14 32 58   0.1600  1.1393   140.6    34.3    22.3
...
2024 05 24    16 57 18.3 +28 20 49   0.1879  1.1408   129.2    43.4    22.9
...
2024 06 08    16 57 41.2 +41 46 54   0.2586  1.1498   115.4    52.9    23.9
A. U. Tomatic                (C) Copyright 2024 MPC           M.P.E.C. 2024-J221
    
    
More information about the Iaude
mailing list